Total_Precipitation_Accumulation
1.15 1.00 0.61 0.28 0.15 0.07 0.06 0.05 0.03 0.01 0.01 0.02 0.02 0.01 0.00 0.01 0.01 0.01 0.00 0.00 0.00 0.00 0.00 0.00 0.01 0.01 0.01 0.02 0.02 0.02 0.03 0.05 0.11 0.18 0.19 0.20 0.19 0.23 0.25 0.24 0.26 0.26 0.20 0.17
1.11 0.72 0.33 0.22 0.22 0.16 0.13 0.12 0.07 0.03 0.02 0.02 0.02 0.01 0.01 0.01 0.01 0.01 0.00 0.00 0.00 0.00 0.00 0.00 0.00 0.01 0.01 0.01 0.01 0.02 0.02 0.03 0.04 0.07 0.12 0.21 0.29 0.32 0.33 0.34 0.31 0.28 0.25 0.24
0.83 0.45 0.34 0.37 0.35 0.26 0.16 0.12 0.09 0.07 0.05 0.06 0.05 0.03 0.01 0.01 0.01 0.01 0.00 0.00 0.00 0.00 0.00 0.00 0.00 0.00 0.00 0.00 0.01 0.01 0.01 0.02 0.03 0.07 0.16 0.25 0.31 0.28 0.25 0.20 0.18 0.24 0.28 0.29
0.80 0.46 0.46 0.48 0.39 0.29 0.20 0.08 0.09 0.12 0.14 0.14 0.09 0.06 0.00 0.00 0.00 0.00 0.00 0.00 0.00 0.00 0.00 0.00 0.00 0.00 0.00 0.00 0.00 0.01 0.01 0.01 0.02 0.06 0.09 0.12 0.14 0.13 0.13 0.16 0.19 0.25 0.29 0.31
0.85 0.56 0.56 0.55 0.36 0.31 0.22 0.11 0.14 0.20 0.24 0.23 0.14 0.08 0.01 0.00 0.00 0.00 0.00 0.00 0.00 0.00 0.00 0.00 0.00 0.00 0.00 0.00 0.00 0.00 0.00 0.01 0.01 0.02 0.05 0.10 0.12 0.12 0.12 0.15 0.17 0.19 0.22 0.27
0.65 0.56 0.65 0.56 0.35 0.36 0.32 0.30 0.30 0.33 0.47 0.44 0.16 0.12 0.04 0.00 0.00 0.00 0.00 0.00 0.00 0.00 0.00 0.00 0.00 0.00 0.00 0.00 0.00 0.00 0.00 0.00 0.01 0.01 0.03 0.05 0.07 0.09 0.09 0.09 0.12 0.15 0.18 0.20
0.96 0.75 0.63 0.60 0.59 0.62 0.60 0.74 0.89 0.81 0.73 0.39 0.11 0.11 0.05 0.00 0.00 0.00 0.00 0.00 0.00 0.00 0.00 0.00 0.00 0.00 0.00 0.00 0.00 0.00 0.00 0.00 0.01 0.01 0.02 0.03 0.07 0.10 0.11 0.11 0.12 0.14 0.14 0.14
0.95 0.88 0.60 0.65 0.70 0.76 0.65 0.70 0.73 0.54 0.31 0.14 0.10 0.09 0.03 0.00 0.00 0.00 0.00 0.00 0.00 0.00 0.00 0.00 0.00 0.00 0.00 0.00 0.00 0.00 0.00 0.00 0.01 0.01 0.02 0.02 0.04 0.07 0.08 0.10 0.11 0.12 0.14 0.18
0.59 0.64 0.42 0.46 0.50 0.52 0.63 0.62 0.47 0.52 0.33 0.18 0.12 0.07 0.02 0.00 0.00 0.00 0.00 0.00 0.00 0.00 0.00 0.00 0.00 0.00 0.00 0.00 0.00 0.00 0.00 0.01 0.02 0.02 0.02 0.02 0.02 0.04 0.06 0.08 0.09 0.11 0.13 0.15
0.51 0.65 0.47 0.49 0.65 0.60 0.57 0.51 0.60 0.87 0.62 0.29 0.11 0.05 0.01 0.00 0.00 0.00 0.00 0.00 0.00 0.00 0.00 0.00 0.00 0.00 0.00 0.00 0.00 0.00 0.01 0.02 0.03 0.03 0.03 0.02 0.03 0.04 0.05 0.06 0.06 0.08 0.10 0.12
0.48 0.72 0.64 0.65 0.77 0.56 0.54 0.60 0.67 0.66 0.49 0.39 0.18 0.05 0.02 0.01 0.01 0.01 0.01 0.00 0.00 0.00 0.00 0.00 0.00 0.00 0.00 0.00 0.00 0.01 0.02 0.03 0.04 0.03 0.03 0.03 0.03 0.04 0.05 0.05 0.06 0.07 0.08 0.09
0.45 0.71 0.65 0.50 0.42 0.34 0.40 0.39 0.48 0.63 0.45 0.33 0.22 0.06 0.01 0.01 0.02 0.03 0.03 0.02 0.01 0.00 0.00 0.00 0.00 0.00 0.00 0.01 0.02 0.03 0.05 0.05 0.04 0.04 0.03 0.04 0.04 0.05 0.05 0.06 0.06 0.06 0.07 0.07
0.46 0.74 0.74 0.57 0.53 0.51 0.51 0.37 0.37 0.56 0.73 0.51 0.33 0.09 0.02 0.02 0.04 0.07 0.07 0.06 0.04 0.03 0.02 0.02 0.02 0.01 0.02 0.02 0.04 0.05 0.05 0.04 0.04 0.04 0.04 0.04 0.04 0.05 0.06 0.07 0.07 0.06 0.06 0.05
0.63 0.78 0.68 0.56 0.47 0.51 0.50 0.37 0.41 0.81 0.96 0.45 0.20 0.09 0.06 0.06 0.09 0.11 0.12 0.11 0.08 0.05 0.04 0.04 0.03 0.04 0.03 0.04 0.05 0.05 0.04 0.04 0.05 0.05 0.05 0.06 0.06 0.07 0.08 0.08 0.07 0.06 0.05 0.05
0.66 0.81 0.59 0.39 0.32 0.42 0.44 0.40 0.48 0.72 0.63 0.48 0.21 0.14 0.14 0.13 0.15 0.13 0.12 0.09 0.07 0.05 0.05 0.05 0.05 0.05 0.05 0.05 0.04 0.03 0.04 0.04 0.05 0.07 0.09 0.09 0.09 0.08 0.08 0.07 0.06 0.05 0.05 0.06
0.42 0.61 0.57 0.44 0.31 0.37 0.41 0.37 0.42 0.48 0.43 0.39 0.30 0.27 0.16 0.15 0.14 0.14 0.12 0.09 0.06 0.05 0.05 0.05 0.05 0.05 0.06 0.07 0.05 0.06 0.07 0.07 0.08 0.10 0.12 0.12 0.11 0.10 0.09 0.09 0.08 0.07 0.08 0.09
0.26 0.43 0.61 0.51 0.34 0.42 0.51 0.41 0.40 0.38 0.28 0.27 0.29 0.22 0.15 0.17 0.16 0.14 0.11 0.08 0.05 0.03 0.03 0.03 0.02 0.03 0.03 0.03 0.04 0.07 0.10 0.13 0.14 0.14 0.14 0.14 0.14 0.13 0.12 0.12 0.13 0.16 0.20 0.22
0.13 0.29 0.52 0.43 0.38 0.49 0.42 0.30 0.28 0.27 0.20 0.18 0.18 0.12 0.13 0.15 0.15 0.12 0.09 0.07 0.04 0.03 0.02 0.01 0.01 0.01 0.02 0.02 0.03 0.04 0.06 0.08 0.12 0.13 0.14 0.15 0.17 0.19 0.17 0.20 0.25 0.31 0.38 0.43
0.07 0.24 0.44 0.35 0.28 0.22 0.15 0.13 0.14 0.18 0.16 0.12 0.12 0.10 0.10 0.11 0.14 0.13 0.11 0.09 0.06 0.04 0.03 0.01 0.01 0.01 0.02 0.02 0.03 0.04 0.05 0.07 0.09 0.12 0.14 0.16 0.19 0.28 0.35 0.41 0.45 0.49 0.54 0.58
0.08 0.18 0.38 0.29 0.24 0.13 0.07 0.03 0.03 0.08 0.11 0.05 0.06 0.09 0.10 0.10 0.12 0.11 0.10 0.08 0.08 0.06 0.05 0.04 0.03 0.03 0.04 0.04 0.04 0.07 0.10 0.13 0.18 0.22 0.27 0.31 0.37 0.48 0.57 0.60 0.61 0.58 0.55 0.54
0.13 0.21 0.27 0.22 0.18 0.04 0.02 0.01 0.02 0.09 0.11 0.02 0.02 0.06 0.09 0.10 0.09 0.08 0.07 0.07 0.07 0.08 0.09 0.10 0.11 0.13 0.14 0.15 0.17 0.22 0.25 0.31 0.35 0.37 0.43 0.48 0.48 0.48 0.49 0.48 0.45 0.39 0.33 0.28
0.06 0.11 0.11 0.10 0.13 0.06 0.02 0.02 0.04 0.06 0.04 0.02 0.02 0.03 0.06 0.07 0.08 0.08 0.06 0.04 0.05 0.07 0.08 0.12 0.18 0.25 0.28 0.31 0.38 0.42 0.43 0.45 0.43 0.43 0.44 0.44 0.42 0.38 0.34 0.29 0.23 0.17 0.13 0.09
0.04 0.06 0.06 0.05 0.05 0.03 0.02 0.03 0.03 0.03 0.03 0.02 0.02 0.03 0.04 0.06 0.07 0.06 0.06 0.04 0.03 0.03 0.05 0.08 0.13 0.17 0.22 0.27 0.31 0.35 0.36 0.33 0.31 0.30 0.29 0.26 0.22 0.17 0.14 0.11 0.07 0.05 0.04 0.03
0.06 0.04 0.05 0.04 0.03 0.02 0.02 0.03 0.03 0.03 0.03 0.03 0.03 0.03 0.03 0.04 0.04 0.03 0.03 0.04 0.03 0.02 0.02 0.03 0.04 0.05 0.06 0.08 0.11 0.13 0.12 0.11 0.11 0.10 0.09 0.07 0.05 0.03 0.03 0.02 0.01 0.01 0.01 0.00
0.07 0.06 0.06 0.04 0.03 0.03 0.03 0.03 0.02 0.02 0.02 0.03 0.03 0.03 0.03 0.04 0.04 0.04 0.04 0.03 0.02 0.02 0.02 0.02 0.02 0.03 0.03 0.03 0.03 0.03 0.03 0.02 0.02 0.02 0.01 0.01 0.01 0.01 0.00 0.00 0.00 0.00 0.00 0.00
0.02 0.03 0.05 0.05 0.02 0.02 0.02 0.01 0.01 0.01 0.01 0.01 0.02 0.03 0.02 0.02 0.02 0.04 0.04 0.03 0.03 0.02 0.02 0.02 0.03 0.02 0.02 0.02 0.02 0.02 0.01 0.01 0.01 0.01 0.00 0.00 0.00 0.00 0.00 0.00 0.00 0.00 0.00 0.00